UAE248 SAEZ-SBGL

Flight info

Callsign UAE248
Flight time 2h 18m
Altitude 37000
Route DORVO1A DORVO UN857 MIMOL/N0481F390 UN857 AKNUB
Aircraft B77W/H-SDE1E2E3FGHIJ2J3J4J5M1RWXY/LB1D1

Departure

Time 2026-05-07 07:58
Airport Ezeiza International Airport - Ministro Pistarini (SAEZ)

Arrival

Time 2026-05-07 10:16
Airport Rio Galeão – Tom Jobim International Airport (SBGL)
Time Latitude Longitude Altitude Speed Heading
2026-05-07 07:23 -34.81613 -58.53977 86 ft 0 kts 319°
2026-05-07 07:46 -34.81618 -58.53972 86 ft 0 kts 319°
2026-05-07 07:46 -34.81628 -58.53960 85 ft 2 kts 313°
2026-05-07 07:46 -34.81638 -58.53946 85 ft 2 kts 304°
2026-05-07 07:46 -34.81645 -58.53931 85 ft 2 kts 297°
2026-05-07 07:47 -34.81651 -58.53915 85 ft 2 kts 290°
2026-05-07 07:47 -34.81656 -58.53898 85 ft 2 kts 283°
2026-05-07 07:47 -34.81659 -58.53880 85 ft 2 kts 276°
2026-05-07 07:47 -34.81659 -58.53862 85 ft 2 kts 269°
2026-05-07 07:48 -34.81658 -58.53844 85 ft 2 kts 262°
2026-05-07 07:48 -34.81655 -58.53826 85 ft 2 kts 255°
2026-05-07 07:48 -34.81650 -58.53809 85 ft 2 kts 247°
2026-05-07 07:48 -34.81644 -58.53793 85 ft 2 kts 240°
2026-05-07 07:49 -34.81636 -58.53777 85 ft 2 kts 233°
2026-05-07 07:49 -34.81626 -58.53764 85 ft 2 kts 225°
2026-05-07 07:49 -34.81620 -58.53757 85 ft 0 kts 222°
2026-05-07 07:52 -34.81625 -58.53762 85 ft 3 kts 222°
2026-05-07 07:52 -34.81659 -58.53799 85 ft 9 kts 222°
2026-05-07 07:52 -34.81720 -58.53865 85 ft 11 kts 229°
2026-05-07 07:53 -34.81758 -58.53961 84 ft 13 kts 243°
2026-05-07 07:53 -34.81792 -58.54069 83 ft 14 kts 262°
2026-05-07 07:53 -34.81784 -58.54198 82 ft 15 kts 281°
2026-05-07 07:53 -34.81768 -58.54327 81 ft 15 kts 277°
2026-05-07 07:54 -34.81754 -58.54451 80 ft 14 kts 277°
2026-05-07 07:54 -34.81759 -58.54578 78 ft 15 kts 257°
2026-05-07 07:54 -34.81779 -58.54705 76 ft 15 kts 265°
2026-05-07 07:54 -34.81768 -58.54833 75 ft 15 kts 282°
2026-05-07 07:55 -34.81746 -58.54956 74 ft 14 kts 283°
2026-05-07 07:55 -34.81724 -58.55073 74 ft 13 kts 283°
2026-05-07 07:55 -34.81703 -58.55186 73 ft 13 kts 283°
2026-05-07 07:55 -34.81702 -58.55293 72 ft 12 kts 244°
2026-05-07 07:56 -34.81770 -58.55352 72 ft 11 kts 185°
2026-05-07 07:56 -34.81844 -58.55316 72 ft 10 kts 149°
2026-05-07 07:56 -34.81908 -58.55284 72 ft 7 kts 151°
2026-05-07 07:56 -34.81926 -58.55238 73 ft 4 kts 102°
2026-05-07 07:57 -34.81933 -58.55194 73 ft 13 kts 102°
2026-05-07 07:57 -34.82003 -58.54796 75 ft 88 kts 102°
2026-05-07 07:57 -34.82193 -58.53738 82 ft 163 kts 102°
2026-05-07 07:57 -34.82470 -58.52236 484 ft 196 kts 102°
2026-05-07 07:58 -34.82785 -58.50521 1196 ft 220 kts 113°
2026-05-07 07:58 -34.83594 -58.48999 1958 ft 221 kts 137°
2026-05-07 07:58 -34.84744 -58.47637 2472 ft 242 kts 141°
2026-05-07 07:58 -34.85940 -58.46075 3113 ft 264 kts 128°
2026-05-07 07:59 -34.86922 -58.44122 3889 ft 279 kts 123°
2026-05-07 07:59 -34.87874 -58.42067 4904 ft 281 kts 123°
2026-05-07 07:59 -34.88846 -58.39991 5791 ft 288 kts 123°
2026-05-07 07:59 -34.89857 -58.37853 6618 ft 296 kts 122°
2026-05-07 08:00 -34.90734 -58.35601 7483 ft 302 kts 107°
2026-05-07 08:00 -34.91205 -58.33082 8344 ft 307 kts 99°
2026-05-07 08:00 -34.91582 -58.30499 9283 ft 309 kts 97°
2026-05-07 08:00 -34.91956 -58.27920 10128 ft 316 kts 97°
2026-05-07 08:01 -34.92349 -58.25236 10633 ft 334 kts 96°
2026-05-07 08:01 -34.92777 -58.22348 11136 ft 352 kts 96°
2026-05-07 08:01 -34.93224 -58.19333 11601 ft 371 kts 97°
2026-05-07 08:01 -34.93691 -58.16192 12064 ft 390 kts 96°
2026-05-07 08:02 -34.94185 -58.12853 12580 ft 407 kts 96°
2026-05-07 08:02 -34.94693 -58.09420 13160 ft 420 kts 96°
2026-05-07 08:02 -34.95216 -58.05897 14050 ft 423 kts 95°
2026-05-07 08:02 -34.95737 -58.02368 14858 ft 430 kts 96°
2026-05-07 08:03 -34.96260 -57.98745 15552 ft 438 kts 93°
2026-05-07 08:03 -34.96453 -57.95014 16125 ft 442 kts 82°
2026-05-07 08:03 -34.96109 -57.91283 16729 ft 443 kts 71°
2026-05-07 08:03 -34.95245 -57.87729 17467 ft 438 kts 60°
2026-05-07 08:04 -34.93897 -57.84397 18148 ft 433 kts 50°
2026-05-07 08:04 -34.92137 -57.81434 18824 ft 429 kts 41°
2026-05-07 08:04 -34.90203 -57.78668 19735 ft 428 kts 40°
2026-05-07 08:04 -34.88251 -57.75883 20637 ft 429 kts 40°
2026-05-07 08:05 -34.86319 -57.73108 21361 ft 433 kts 40°
2026-05-07 08:05 -34.84341 -57.70256 21923 ft 441 kts 41°
2026-05-07 08:05 -34.82348 -57.67365 22577 ft 446 kts 41°
2026-05-07 08:05 -34.80355 -57.64469 23095 ft 453 kts 41°
2026-05-07 08:06 -34.78334 -57.61527 23748 ft 457 kts 41°
2026-05-07 08:06 -34.76261 -57.58503 24419 ft 461 kts 41°
2026-05-07 08:06 -34.74221 -57.55529 25006 ft 466 kts 42°
2026-05-07 08:06 -34.72127 -57.52477 25660 ft 469 kts 42°
2026-05-07 08:07 -34.70022 -57.49411 26243 ft 474 kts 42°
2026-05-07 08:07 -34.67885 -57.46308 26778 ft 480 kts 43°
2026-05-07 08:07 -34.65749 -57.43208 27325 ft 485 kts 43°
2026-05-07 08:07 -34.63586 -57.40068 27981 ft 488 kts 43°
2026-05-07 08:08 -34.61385 -57.36877 28517 ft 493 kts 43°
2026-05-07 08:08 -34.59188 -57.33696 29107 ft 497 kts 43°
2026-05-07 08:08 -34.56953 -57.30459 29757 ft 498 kts 43°
2026-05-07 08:08 -34.54713 -57.27217 30502 ft 497 kts 43°
2026-05-07 08:09 -34.52513 -57.24034 31277 ft 494 kts 43°
2026-05-07 08:09 -34.50328 -57.20873 32191 ft 487 kts 42°
2026-05-07 08:09 -34.48160 -57.17744 32876 ft 484 kts 42°
2026-05-07 08:09 -34.45983 -57.14608 33428 ft 483 kts 42°
2026-05-07 08:10 -34.43813 -57.11484 34026 ft 482 kts 43°
2026-05-07 08:10 -34.41645 -57.08365 34642 ft 479 kts 42°
2026-05-07 08:10 -34.39464 -57.05229 35297 ft 476 kts 42°
2026-05-07 08:10 -34.37252 -57.02052 35908 ft 474 kts 42°
2026-05-07 08:11 -34.35120 -56.98994 36352 ft 474 kts 42°
2026-05-07 08:11 -34.32982 -56.95932 36630 ft 476 kts 42°
2026-05-07 08:11 -34.30810 -56.92825 36641 ft 478 kts 42°
2026-05-07 08:12 -34.26476 -56.86622 36624 ft 472 kts 42°
2026-05-07 08:12 -34.22191 -56.80515 36634 ft 477 kts 42°
2026-05-07 08:13 -34.17881 -56.74378 36633 ft 475 kts 42°
2026-05-07 08:13 -34.13574 -56.68259 36637 ft 476 kts 42°
2026-05-07 08:14 -34.09279 -56.62168 36633 ft 476 kts 42°
2026-05-07 08:14 -34.04991 -56.56096 36646 ft 477 kts 43°
2026-05-07 08:15 -34.00699 -56.50028 36640 ft 477 kts 43°
2026-05-07 08:15 -33.96293 -56.43812 36641 ft 479 kts 43°
2026-05-07 08:16 -33.91980 -56.37735 36641 ft 479 kts 43°
2026-05-07 08:16 -33.87644 -56.31638 36638 ft 477 kts 41°
2026-05-07 08:17 -33.83268 -56.25534 36647 ft 479 kts 42°
2026-05-07 08:17 -33.78912 -56.19469 36662 ft 482 kts 42°
2026-05-07 08:18 -33.74557 -56.13370 36668 ft 479 kts 42°
2026-05-07 08:18 -33.70177 -56.07245 36674 ft 481 kts 42°
2026-05-07 08:19 -33.65808 -56.01149 36672 ft 484 kts 42°
2026-05-07 08:19 -33.61409 -55.95018 36677 ft 485 kts 42°
2026-05-07 08:20 -33.56981 -55.88858 36674 ft 484 kts 42°
2026-05-07 08:20 -33.52562 -55.82723 36666 ft 486 kts 42°
2026-05-07 08:21 -33.48146 -55.76602 36668 ft 487 kts 42°
2026-05-07 08:21 -33.43673 -55.70414 36687 ft 490 kts 42°
2026-05-07 08:22 -33.39189 -55.64217 36682 ft 487 kts 42°
2026-05-07 08:22 -33.34740 -55.58084 36695 ft 490 kts 42°
2026-05-07 08:23 -33.30228 -55.51872 36702 ft 491 kts 42°
2026-05-07 08:23 -33.25708 -55.45661 36701 ft 493 kts 43°
2026-05-07 08:24 -33.21211 -55.39491 36702 ft 492 kts 42°
2026-05-07 08:24 -33.16669 -55.33272 36695 ft 497 kts 41°
2026-05-07 08:25 -33.12142 -55.27080 36699 ft 495 kts 42°
2026-05-07 08:25 -33.07586 -55.20862 36703 ft 495 kts 42°
2026-05-07 08:26 -33.00825 -55.11652 36712 ft 495 kts 42°
2026-05-07 08:26 -32.96252 -55.05439 36706 ft 498 kts 41°
2026-05-07 08:27 -32.91637 -54.99177 36716 ft 501 kts 41°
2026-05-07 08:27 -32.87009 -54.92907 36716 ft 498 kts 41°
2026-05-07 08:28 -32.82428 -54.86715 36729 ft 505 kts 41°
2026-05-07 08:28 -32.77770 -54.80426 36728 ft 503 kts 41°
2026-05-07 08:29 -32.73136 -54.74181 36731 ft 504 kts 41°
2026-05-07 08:29 -32.68504 -54.67950 36738 ft 506 kts 41°
2026-05-07 08:30 -32.63802 -54.61636 36744 ft 507 kts 41°
2026-05-07 08:30 -32.59140 -54.55386 36754 ft 508 kts 41°
2026-05-07 08:31 -32.54407 -54.49052 36735 ft 508 kts 41°
2026-05-07 08:31 -32.49690 -54.42749 36742 ft 511 kts 41°
2026-05-07 08:32 -32.44954 -54.36432 36746 ft 510 kts 41°
2026-05-07 08:32 -32.40221 -54.30130 36719 ft 509 kts 40°
2026-05-07 08:33 -32.35466 -54.23811 36715 ft 515 kts 40°
2026-05-07 08:33 -32.30749 -54.17470 36722 ft 512 kts 41°
2026-05-07 08:34 -32.26042 -54.11078 36718 ft 515 kts 41°
2026-05-07 08:34 -32.21333 -54.04698 36711 ft 515 kts 41°
2026-05-07 08:35 -32.16611 -53.98314 36712 ft 514 kts 41°
2026-05-07 08:35 -32.11858 -53.91905 36716 ft 519 kts 41°
2026-05-07 08:36 -32.07098 -53.85492 36724 ft 515 kts 41°
2026-05-07 08:36 -32.02338 -53.79103 36741 ft 521 kts 41°
2026-05-07 08:37 -31.97536 -53.72668 36744 ft 518 kts 41°
2026-05-07 08:37 -31.92783 -53.66309 36764 ft 517 kts 41°
2026-05-07 08:38 -31.87985 -53.59904 36773 ft 517 kts 41°
2026-05-07 08:38 -31.83214 -53.53545 36785 ft 521 kts 41°
2026-05-07 08:39 -31.78429 -53.47176 36797 ft 517 kts 41°
2026-05-07 08:39 -31.73610 -53.40774 36806 ft 518 kts 41°
2026-05-07 08:40 -31.68818 -53.34417 36809 ft 519 kts 40°
2026-05-07 08:40 -31.64052 -53.28107 36791 ft 515 kts 40°
2026-05-07 08:41 -31.59238 -53.21748 36798 ft 521 kts 40°
2026-05-07 08:41 -31.54470 -53.15452 36798 ft 516 kts 40°
2026-05-07 08:42 -31.49660 -53.09119 36804 ft 519 kts 40°
2026-05-07 08:42 -31.44875 -53.02824 36804 ft 518 kts 40°
2026-05-07 08:43 -31.40057 -52.96500 36805 ft 520 kts 40°
2026-05-07 08:43 -31.35229 -52.90171 36812 ft 520 kts 40°
2026-05-07 08:44 -31.30391 -52.83840 36825 ft 522 kts 40°
2026-05-07 08:44 -31.25582 -52.77546 36834 ft 519 kts 40°
2026-05-07 08:45 -31.20734 -52.71215 36849 ft 519 kts 40°
2026-05-07 08:45 -31.15888 -52.64906 36842 ft 520 kts 40°
2026-05-07 08:46 -31.11044 -52.58608 36834 ft 518 kts 40°
2026-05-07 08:46 -31.06193 -52.52314 36832 ft 522 kts 40°
2026-05-07 08:47 -31.01375 -52.46068 36825 ft 517 kts 40°
2026-05-07 08:47 -30.96497 -52.39760 36823 ft 518 kts 40°
2026-05-07 08:48 -30.91668 -52.33524 36813 ft 520 kts 40°
2026-05-07 08:48 -30.86807 -52.27317 36812 ft 516 kts 39°
2026-05-07 08:49 -30.81882 -52.21182 36820 ft 519 kts 39°
2026-05-07 08:49 -30.76916 -52.14996 36823 ft 517 kts 39°
2026-05-07 08:50 -30.71994 -52.08876 36831 ft 521 kts 39°
2026-05-07 08:50 -30.67056 -52.02734 36849 ft 517 kts 39°
2026-05-07 08:51 -30.62100 -51.96582 36864 ft 521 kts 39°
2026-05-07 08:51 -30.57156 -51.90448 36861 ft 518 kts 39°
2026-05-07 08:52 -30.52176 -51.84285 36862 ft 522 kts 39°
2026-05-07 08:52 -30.47212 -51.78147 36857 ft 521 kts 39°
2026-05-07 08:53 -30.42217 -51.71884 36851 ft 522 kts 41°
2026-05-07 08:53 -30.37434 -51.65612 36847 ft 525 kts 41°
2026-05-07 08:54 -30.32560 -51.59235 36842 ft 522 kts 41°
2026-05-07 08:54 -30.27688 -51.52885 36841 ft 525 kts 41°
2026-05-07 08:55 -30.22828 -51.46563 36847 ft 525 kts 41°
2026-05-07 08:55 -30.17926 -51.40202 36848 ft 526 kts 41°
2026-05-07 08:56 -30.13063 -51.33901 36847 ft 524 kts 40°
2026-05-07 08:56 -30.08211 -51.27626 36841 ft 524 kts 40°
2026-05-07 08:57 -30.03326 -51.21321 36846 ft 525 kts 40°
2026-05-07 08:57 -29.98501 -51.15101 36852 ft 522 kts 40°
2026-05-07 08:58 -29.93630 -51.08858 36867 ft 524 kts 41°
2026-05-07 08:58 -29.88704 -51.02552 36870 ft 525 kts 40°
2026-05-07 08:59 -29.83800 -50.96283 36888 ft 525 kts 41°
2026-05-07 08:59 -29.78878 -50.90002 36890 ft 528 kts 41°
2026-05-07 09:00 -29.73918 -50.83681 36910 ft 525 kts 41°
2026-05-07 09:00 -29.69036 -50.77472 36903 ft 531 kts 41°
2026-05-07 09:01 -29.64060 -50.71149 36920 ft 527 kts 41°
2026-05-07 09:01 -29.59101 -50.64863 36951 ft 532 kts 41°
2026-05-07 09:02 -29.54101 -50.58529 36989 ft 528 kts 41°
2026-05-07 09:02 -29.49110 -50.52340 37036 ft 530 kts 40°
2026-05-07 09:03 -29.43999 -50.46164 37054 ft 532 kts 40°
2026-05-07 09:03 -29.38927 -50.40035 37061 ft 532 kts 40°
2026-05-07 09:04 -29.33829 -50.33879 37049 ft 530 kts 40°
2026-05-07 09:04 -29.28756 -50.27760 37055 ft 534 kts 40°
2026-05-07 09:05 -29.23633 -50.21587 37060 ft 532 kts 40°
2026-05-07 09:05 -29.18508 -50.15423 37044 ft 534 kts 40°
2026-05-07 09:06 -29.13357 -50.09236 37058 ft 537 kts 40°
2026-05-07 09:06 -29.08218 -50.03070 37057 ft 533 kts 40°
2026-05-07 09:07 -29.03086 -49.96924 37072 ft 536 kts 40°
2026-05-07 09:07 -28.97978 -49.90814 37064 ft 532 kts 41°
2026-05-07 09:08 -28.92845 -49.84687 37038 ft 535 kts 40°
2026-05-07 09:08 -28.87747 -49.78521 37012 ft 535 kts 43°
2026-05-07 09:09 -28.82721 -49.72157 36988 ft 535 kts 43°
2026-05-07 09:09 -28.77727 -49.65848 36988 ft 537 kts 43°
2026-05-07 09:10 -28.72672 -49.59482 36983 ft 534 kts 43°
2026-05-07 09:10 -28.67694 -49.53227 36989 ft 536 kts 43°
2026-05-07 09:11 -28.62693 -49.46957 36988 ft 533 kts 43°
2026-05-07 09:11 -28.57727 -49.40743 36996 ft 536 kts 44°
2026-05-07 09:12 -28.52708 -49.34471 36995 ft 532 kts 43°
2026-05-07 09:12 -28.47710 -49.28238 36983 ft 534 kts 43°
2026-05-07 09:13 -28.42691 -49.21986 36989 ft 534 kts 43°
2026-05-07 09:13 -28.37683 -49.15759 36983 ft 531 kts 43°
2026-05-07 09:14 -28.32650 -49.09513 36976 ft 534 kts 44°
2026-05-07 09:14 -28.27665 -49.03332 36976 ft 532 kts 44°
2026-05-07 09:15 -28.22685 -48.97094 36977 ft 534 kts 44°
2026-05-07 09:15 -28.17703 -48.90839 36992 ft 535 kts 44°
2026-05-07 09:16 -28.12728 -48.84605 37006 ft 533 kts 44°
2026-05-07 09:16 -28.07744 -48.78373 37026 ft 535 kts 44°
2026-05-07 09:17 -28.02775 -48.72168 37029 ft 533 kts 44°
2026-05-07 09:17 -27.97783 -48.65945 37022 ft 535 kts 45°
2026-05-07 09:18 -27.92788 -48.59726 37022 ft 532 kts 45°
2026-05-07 09:18 -27.87794 -48.53519 37003 ft 533 kts 45°
2026-05-07 09:19 -27.82797 -48.47317 37007 ft 532 kts 45°
2026-05-07 09:19 -27.77796 -48.41121 37000 ft 533 kts 45°
2026-05-07 09:20 -27.72839 -48.34986 37005 ft 533 kts 45°
2026-05-07 09:20 -27.67830 -48.28798 36992 ft 532 kts 44°
2026-05-07 09:21 -27.62859 -48.22664 36997 ft 531 kts 45°
2026-05-07 09:21 -27.57886 -48.16537 36994 ft 531 kts 45°
2026-05-07 09:22 -27.52876 -48.10374 36998 ft 532 kts 45°
2026-05-07 09:22 -27.47911 -48.04274 36998 ft 531 kts 45°
2026-05-07 09:23 -27.42908 -47.98137 37001 ft 531 kts 45°
2026-05-07 09:23 -27.37891 -47.91993 37008 ft 532 kts 45°
2026-05-07 09:24 -27.32877 -47.85912 37004 ft 531 kts 45°
2026-05-07 09:24 -27.27858 -47.79836 37009 ft 530 kts 45°
2026-05-07 09:25 -27.22854 -47.73786 37011 ft 530 kts 45°
2026-05-07 09:25 -27.17854 -47.67748 37017 ft 529 kts 45°
2026-05-07 09:26 -27.12837 -47.61697 37016 ft 530 kts 45°
2026-05-07 09:26 -27.07792 -47.55621 37021 ft 529 kts 45°
2026-05-07 09:27 -27.02753 -47.49562 37023 ft 529 kts 45°
2026-05-07 09:28 -26.95234 -47.40535 37022 ft 529 kts 46°
2026-05-07 09:28 -26.90191 -47.34491 37018 ft 530 kts 45°
2026-05-07 09:29 -26.85173 -47.28487 36997 ft 528 kts 45°
2026-05-07 09:29 -26.80149 -47.22486 37002 ft 529 kts 45°
2026-05-07 09:30 -26.75116 -47.16483 36998 ft 530 kts 46°
2026-05-07 09:30 -26.70051 -47.10453 36989 ft 527 kts 45°
2026-05-07 09:31 -26.65007 -47.04471 36992 ft 528 kts 45°
2026-05-07 09:31 -26.59979 -46.98517 36990 ft 526 kts 45°
2026-05-07 09:32 -26.54962 -46.92608 36998 ft 528 kts 45°
2026-05-07 09:32 -26.49871 -46.86628 37000 ft 527 kts 45°
2026-05-07 09:33 -26.44846 -46.80732 37001 ft 528 kts 45°
2026-05-07 09:33 -26.39776 -46.74790 37013 ft 527 kts 46°
2026-05-07 09:34 -26.34719 -46.68872 37008 ft 527 kts 46°
2026-05-07 09:34 -26.29658 -46.62957 37022 ft 527 kts 46°
2026-05-07 09:35 -26.24581 -46.57030 37018 ft 526 kts 46°
2026-05-07 09:35 -26.19475 -46.51078 37023 ft 527 kts 46°
2026-05-07 09:36 -26.14404 -46.45176 37021 ft 526 kts 46°
2026-05-07 09:36 -26.09341 -46.39289 37027 ft 526 kts 46°
2026-05-07 09:37 -26.04248 -46.33377 37017 ft 527 kts 46°
2026-05-07 09:37 -25.99169 -46.27489 37023 ft 526 kts 46°
2026-05-07 09:38 -25.94111 -46.21632 37021 ft 526 kts 46°
2026-05-07 09:38 -25.89042 -46.15770 37025 ft 527 kts 46°
2026-05-07 09:39 -25.83935 -46.09872 37016 ft 526 kts 46°
2026-05-07 09:39 -25.78849 -46.04007 37021 ft 526 kts 46°
2026-05-07 09:40 -25.73777 -45.98165 37020 ft 526 kts 46°
2026-05-07 09:40 -25.68687 -45.92310 37016 ft 526 kts 46°
2026-05-07 09:41 -25.63603 -45.86470 37017 ft 527 kts 46°
2026-05-07 09:41 -25.58462 -45.80575 37017 ft 526 kts 46°
2026-05-07 09:42 -25.53371 -45.74744 37021 ft 527 kts 46°
2026-05-07 09:42 -25.48257 -45.68895 37025 ft 526 kts 47°
2026-05-07 09:43 -25.43155 -45.63067 37024 ft 526 kts 47°
2026-05-07 09:43 -25.38019 -45.57207 37024 ft 527 kts 46°
2026-05-07 09:44 -25.32895 -45.51369 37026 ft 527 kts 47°
2026-05-07 09:44 -25.27800 -45.45572 37028 ft 526 kts 47°
2026-05-07 09:45 -25.22696 -45.39772 37026 ft 526 kts 47°
2026-05-07 09:45 -25.17589 -45.33976 37022 ft 526 kts 46°
2026-05-07 09:46 -25.12458 -45.28159 37021 ft 526 kts 46°
2026-05-07 09:46 -25.07317 -45.22340 37019 ft 525 kts 46°
2026-05-07 09:47 -25.02153 -45.16502 37018 ft 526 kts 46°
2026-05-07 09:47 -24.97044 -45.10732 37018 ft 526 kts 47°
2026-05-07 09:48 -24.91927 -45.04961 37020 ft 525 kts 47°
2026-05-07 09:48 -24.86775 -44.99159 37009 ft 527 kts 47°
2026-05-07 09:49 -24.81664 -44.93410 37005 ft 527 kts 47°
2026-05-07 09:49 -24.76506 -44.87615 37014 ft 526 kts 47°
2026-05-07 09:50 -24.71365 -44.81846 37018 ft 527 kts 47°
2026-05-07 09:50 -24.66233 -44.76095 37023 ft 527 kts 47°
2026-05-07 09:51 -24.61082 -44.70330 37022 ft 527 kts 47°
2026-05-07 09:51 -24.55934 -44.64575 37031 ft 526 kts 47°
2026-05-07 09:52 -24.50666 -44.58895 37026 ft 527 kts 40°
2026-05-07 09:52 -24.44464 -44.54566 37040 ft 530 kts 27°
2026-05-07 09:53 -24.37926 -44.50878 37037 ft 528 kts 27°
2026-05-07 09:53 -24.31367 -44.47200 36974 ft 525 kts 27°
2026-05-07 09:53 -24.28103 -44.45374 36199 ft 526 kts 27°
2026-05-07 09:54 -24.24855 -44.43557 35232 ft 529 kts 27°
2026-05-07 09:54 -24.21531 -44.41700 34421 ft 529 kts 27°
2026-05-07 09:54 -24.18233 -44.39860 33601 ft 530 kts 27°
2026-05-07 09:54 -24.14941 -44.38023 32821 ft 530 kts 27°
2026-05-07 09:55 -24.11655 -44.36191 31993 ft 531 kts 27°
2026-05-07 09:55 -24.08343 -44.34346 31121 ft 533 kts 27°
2026-05-07 09:55 -24.05031 -44.32502 30436 ft 531 kts 27°
2026-05-07 09:55 -24.01756 -44.30680 29975 ft 523 kts 27°
2026-05-07 09:56 -23.98530 -44.28886 29464 ft 517 kts 27°
2026-05-07 09:56 -23.95401 -44.27016 28917 ft 512 kts 33°
2026-05-07 09:56 -23.92558 -44.24721 28367 ft 506 kts 43°
2026-05-07 09:56 -23.90075 -44.22010 27826 ft 499 kts 52°
2026-05-07 09:57 -23.88080 -44.19011 27640 ft 483 kts 61°
2026-05-07 09:57 -23.86349 -44.15773 27097 ft 490 kts 59°
2026-05-07 09:57 -23.84290 -44.12796 26411 ft 492 kts 50°
2026-05-07 09:57 -23.81806 -44.10195 25868 ft 488 kts 40°
2026-05-07 09:58 -23.79035 -44.08093 25390 ft 482 kts 31°
2026-05-07 09:58 -23.76018 -44.06500 24911 ft 475 kts 21°
2026-05-07 09:58 -23.72848 -44.05415 24423 ft 469 kts 14°
2026-05-07 09:58 -23.69708 -44.04628 23943 ft 463 kts 11°
2026-05-07 09:59 -23.66537 -44.03988 23458 ft 457 kts
2026-05-07 09:59 -23.63419 -44.03455 22999 ft 451 kts
2026-05-07 09:59 -23.60329 -44.03009 22557 ft 445 kts
2026-05-07 09:59 -23.57277 -44.02636 22121 ft 444 kts
2026-05-07 10:00 -23.54204 -44.02310 21715 ft 440 kts
2026-05-07 10:00 -23.51149 -44.02019 21362 ft 436 kts
2026-05-07 10:00 -23.48131 -44.01758 21010 ft 434 kts
2026-05-07 10:00 -23.45131 -44.01519 20557 ft 434 kts
2026-05-07 10:01 -23.42125 -44.01295 20032 ft 430 kts
2026-05-07 10:01 -23.39152 -44.01083 19530 ft 426 kts
2026-05-07 10:01 -23.36192 -44.00878 19041 ft 421 kts
2026-05-07 10:01 -23.33287 -44.00682 18560 ft 416 kts
2026-05-07 10:02 -23.30409 -44.00493 18090 ft 411 kts
2026-05-07 10:02 -23.27562 -44.00307 17627 ft 408 kts
2026-05-07 10:02 -23.24743 -44.00125 17154 ft 405 kts
2026-05-07 10:02 -23.21923 -43.99944 16648 ft 402 kts
2026-05-07 10:03 -23.19150 -43.99767 16183 ft 398 kts
2026-05-07 10:03 -23.16417 -43.99594 15729 ft 393 kts
2026-05-07 10:03 -23.13670 -43.99420 15274 ft 389 kts
2026-05-07 10:03 -23.10979 -43.99250 14831 ft 387 kts
2026-05-07 10:04 -23.08307 -43.99082 14404 ft 385 kts
2026-05-07 10:04 -23.05622 -43.98913 13959 ft 382 kts
2026-05-07 10:04 -23.02961 -43.98746 13521 ft 379 kts
2026-05-07 10:04 -23.00342 -43.98577 13093 ft 375 kts
2026-05-07 10:05 -22.97788 -43.98089 12666 ft 370 kts 18°
2026-05-07 10:05 -22.95445 -43.97013 12254 ft 364 kts 31°
2026-05-07 10:05 -22.93422 -43.95368 11983 ft 355 kts 45°
2026-05-07 10:05 -22.91830 -43.93370 11667 ft 347 kts 53°
2026-05-07 10:06 -22.90473 -43.91250 11303 ft 338 kts 56°
2026-05-07 10:06 -22.89207 -43.89172 11059 ft 324 kts 58°
2026-05-07 10:06 -22.88093 -43.87127 10850 ft 310 kts 60°
2026-05-07 10:06 -22.87096 -43.85088 10626 ft 298 kts 62°
2026-05-07 10:07 -22.86281 -43.83324 10423 ft 288 kts 63°
2026-05-07 10:07 -22.85389 -43.81348 10230 ft 277 kts 63°
2026-05-07 10:07 -22.84545 -43.79466 10017 ft 273 kts 63°
2026-05-07 10:07 -22.83713 -43.77607 9763 ft 271 kts 63°
2026-05-07 10:08 -22.82903 -43.75795 9503 ft 269 kts 63°
2026-05-07 10:08 -22.82086 -43.73969 9267 ft 267 kts 63°
2026-05-07 10:08 -22.81290 -43.72162 9033 ft 268 kts 66°
2026-05-07 10:08 -22.80732 -43.70228 8767 ft 270 kts 73°
2026-05-07 10:09 -22.80278 -43.68262 8433 ft 270 kts 74°
2026-05-07 10:09 -22.79825 -43.66282 8089 ft 270 kts 74°
2026-05-07 10:09 -22.79368 -43.64310 7759 ft 269 kts 73°
2026-05-07 10:09 -22.78915 -43.62363 7443 ft 268 kts 73°
2026-05-07 10:10 -22.78457 -43.60403 7136 ft 267 kts 73°
2026-05-07 10:10 -22.78001 -43.58448 6810 ft 267 kts 73°
2026-05-07 10:10 -22.77545 -43.56513 6500 ft 266 kts 72°
2026-05-07 10:10 -22.76911 -43.54639 6150 ft 265 kts 65°
2026-05-07 10:11 -22.76185 -43.52803 5733 ft 267 kts 65°
2026-05-07 10:11 -22.75457 -43.50977 5315 ft 261 kts 65°
2026-05-07 10:11 -22.74746 -43.49185 4973 ft 256 kts 65°
2026-05-07 10:11 -22.74056 -43.47440 4588 ft 249 kts 65°
2026-05-07 10:12 -22.73376 -43.45722 4153 ft 245 kts 65°
2026-05-07 10:12 -22.72709 -43.44041 3727 ft 241 kts 65°
2026-05-07 10:12 -22.72102 -43.42355 3297 ft 240 kts 76°
2026-05-07 10:12 -22.72176 -43.40566 2869 ft 241 kts 107°
2026-05-07 10:13 -22.72926 -43.38985 2629 ft 233 kts 120°
2026-05-07 10:13 -22.73829 -43.37558 2412 ft 223 kts 123°
2026-05-07 10:13 -22.74698 -43.36250 2187 ft 202 kts 123°
2026-05-07 10:13 -22.75479 -43.35077 1977 ft 186 kts 122°
2026-05-07 10:14 -22.76219 -43.33957 1774 ft 179 kts 122°
2026-05-07 10:14 -22.76939 -43.32869 1517 ft 174 kts 122°
2026-05-07 10:14 -22.77643 -43.31807 1283 ft 167 kts 122°
2026-05-07 10:14 -22.78291 -43.30828 1056 ft 156 kts 122°
2026-05-07 10:15 -22.78925 -43.29870 849 ft 155 kts 123°
2026-05-07 10:15 -22.79552 -43.28924 643 ft 155 kts 123°
2026-05-07 10:15 -22.80176 -43.27978 442 ft 154 kts 123°
2026-05-07 10:15 -22.80805 -43.27025 236 ft 154 kts 124°
2026-05-07 10:16 -22.81430 -43.26088 37 ft 152 kts 124°
2026-05-07 10:16 -22.81994 -43.25240 28 ft 117 kts 125°
2026-05-07 10:16 -22.82312 -43.24755 34 ft 39 kts 122°
2026-05-07 10:16 -22.82361 -43.24607 35 ft 19 kts 95°
2026-05-07 10:17 -22.82371 -43.24484 37 ft 10 kts 91°
2026-05-07 10:17 -22.82338 -43.24417 37 ft 10 kts 36°
2026-05-07 10:17 -22.82282 -43.24375 37 ft 9 kts 36°
2026-05-07 10:17 -22.82228 -43.24332 38 ft 8 kts 36°
2026-05-07 10:18 -22.82186 -43.24299 39 ft 6 kts 35°
2026-05-07 10:18 -22.82147 -43.24291 40 ft 6 kts 340°
2026-05-07 10:18 -22.82113 -43.24316 41 ft 5 kts 333°
2026-05-07 10:18 -22.82083 -43.24312 42 ft 5 kts 26°
2026-05-07 10:19 -22.82040 -43.24281 43 ft 9 kts 34°
2026-05-07 10:19 -22.81984 -43.24239 44 ft 8 kts 36°
2026-05-07 10:19 -22.81949 -43.24219 44 ft 3 kts 357°
2026-05-07 10:19 -22.81933 -43.24235 43 ft 3 kts 306°
2026-05-07 10:20 -22.81916 -43.24260 44 ft 4 kts 306°
2026-05-07 10:20 -22.81903 -43.24279 44 ft 1 kts 306°
2026-05-07 10:20 -22.81901 -43.24283 44 ft 0 kts 306°